Flight Track Log - Related Links

Times and Time Zones

All times are in EDT time to prevent confusion due to time zone crossing. See the SWA1096 flight status page for this flight to view local times or setup timezone preferences in your user account.

Time Position Orientation Groundspeed Altitude Reporting Facility
EDT Latitude Longitude Course Direction KTS MPH feet Rate Location/Type
Fri 09:20:09 AM 36.0758 -115.1764 270° West 160 184 3,500  Level Los Angeles Center
Fri 09:20:52 AM 36.0758 -115.2267 270° West 205 236 5,100 2,867 Climbing Los Angeles Center
Fri 09:21:39 AM 36.0922 -115.2836 290° West 232 267 7,800 3,727 Climbing Los Angeles Center
Fri 09:21:58 AM 36.1122 -115.2947 336° Northwest 239 275 9,200 3,639 Climbing Los Angeles Center
Fri 09:22:40 AM 36.1567 -115.2886 North 253 291 11,500 3,443 Climbing Los Angeles Center
Fri 09:22:59 AM 36.1731 -115.2667 47° Northeast 268 308 12,700 2,600 Climbing Los Angeles Center
Fri 09:23:40 AM 36.1897 -115.2028 72° East 283 326 14,100 2,353 Climbing Los Angeles Center
Fri 09:24:41 AM 36.1981 -115.0817 85° East 342 394 16,700 2,262 Climbing Los Angeles Center
Fri 09:25:42 AM 36.1997 -114.9469 89° East 384 442 18,700 1,820 Climbing Los Angeles Center
Fri 09:26:43 AM 36.2036 -114.8075 88° East 399 459 20,400 1,918 Climbing Los Angeles Center
Fri 09:27:44 AM 36.2575 -114.7250 51° Northeast 399 459 22,600 2,557 Climbing Los Angeles Center
Fri 09:28:45 AM 36.3628 -114.6258 37° Northeast 399 459 25,600 2,607 Climbing Los Angeles Center
Fri 09:29:46 AM 36.4539 -114.5389 37° Northeast 408 470 27,900 2,488 Climbing Los Angeles Center
Fri 09:30:48 AM 36.5475 -114.4511 37° Northeast 418 481 30,700 2,488 Climbing Los Angeles Center
Fri 09:31:49 AM 36.6408 -114.3800 31° Northeast 401 461 33,000 1,131 Climbing Los Angeles Center
Fri 09:32:50 AM 36.7556 -114.2903 32° Northeast 403 464 33,000  Level Los Angeles Center
Fri 09:33:51 AM 36.8533 -114.2144 32° Northeast 411 473 33,000  Level Los Angeles Center
Fri 09:34:52 AM 36.9506 -114.1383 32° Northeast 413 475 33,000  Level Los Angeles Center
Fri 09:35:53 AM 37.0483 -114.0622 32° Northeast 414 476 33,000  Level Los Angeles Center
Fri 09:36:54 AM 37.1464 -113.9856 32° Northeast 414 476 33,000  Level Los Angeles Center
Fri 09:37:56 AM 37.2450 -113.9072 32° Northeast 417 480 33,000  Level Los Angeles Center
Fri 09:38:57 AM 37.3494 -113.8253 32° Northeast 420 483 33,000  Level Los Angeles Center
Fri 09:40:02 AM 37.4481 -113.7478 32° Northeast 419 482 33,000  Level Salt Lake Center
Fri 09:41:03 AM 37.5478 -113.6700 32° Northeast 420 483 33,000  Level Salt Lake Center
Fri 09:42:04 AM 37.6469 -113.5897 33° Northeast 422 486 33,000  Level Salt Lake Center
Fri 09:43:05 AM 37.7461 -113.5106 32° Northeast 420 483 33,000  Level Salt Lake Center
Fri 09:44:06 AM 37.8461 -113.4314 32° Northeast 421 484 33,000  Level Salt Lake Center
Fri 09:45:07 AM 37.9653 -113.3350 33° Northeast 421 484 33,000  Level Salt Lake Center
Fri 09:46:08 AM 38.0650 -113.2553 32° Northeast 421 484 33,000  Level Salt Lake Center
Fri 09:47:09 AM 38.1644 -113.1742 33° Northeast 422 486 33,000  Level Salt Lake Center
Fri 09:48:11 AM 38.2642 -113.0936 32° Northeast 424 488 33,000  Level Salt Lake Center
Fri 09:49:12 AM 38.3639 -113.0133 32° Northeast 424 488 33,000  Level Salt Lake Center
Fri 09:50:13 AM 38.4703 -112.9544 23° Northeast 419 482 33,000 -246 Level Salt Lake Center
Fri 09:51:14 AM 38.5772 -112.8983 22° Northeast 416 479 32,500 -689 Descending Salt Lake Center
Fri 09:52:15 AM 38.6844 -112.8400 23° Northeast 417 480 31,600 -885 Descending Salt Lake Center
Fri 09:53:16 AM 38.7928 -112.7831 22° Northeast 420 483 30,700 -934 Descending Salt Lake Center
Fri 09:54:17 AM 38.9028 -112.7242 23° Northeast 427 491 29,700 -984 Descending Salt Lake Center
Fri 09:55:18 AM 39.0153 -112.6622 23° Northeast 437 503 28,700 -836 Descending Salt Lake Center
Fri 09:56:19 AM 39.1253 -112.6019 23° Northeast 433 498 28,000 -927 Descending Salt Lake Center
Fri 09:57:21 AM 39.2436 -112.5369 23° Northeast 422 486 26,800 -1,073 Descending Salt Lake Center
Fri 09:58:22 AM 39.3528 -112.4856 20° North 420 483 25,800 -984 Descending Salt Lake Center
Fri 09:59:23 AM 39.4644 -112.4519 13° North 413 475 24,800 -1,082 Descending Salt Lake Center
Fri 10:00:24 AM 39.5756 -112.4150 14° North 412 474 23,600 -1,377 Descending Salt Lake Center
Fri 10:01:25 AM 39.6847 -112.3792 14° North 407 468 22,000 -1,707 Descending Salt Lake Center
Fri 10:02:27 AM 39.8136 -112.3361 14° North 401 461 20,100 -1,787 Descending Salt Lake Center
Fri 10:02:59 AM 39.8717 -112.3264 North 396 456 19,200 -1,672 Descending Salt Lake Center
Fri 10:03:28 AM 39.9197 -112.2997 23° Northeast 397 457 18,400 -1,397 Descending Salt Lake Center
Fri 10:04:12 AM 39.9950 -112.2856 North 384 442 17,500 -1,279 Descending Salt Lake Center
Fri 10:04:29 AM 40.0206 -112.2639 33° Northeast 380 437 17,100 -923 Descending Salt Lake Center
Fri 10:05:30 AM 40.1200 -112.2325 14° North 370 426 16,300 -878 Descending Salt Lake Center
Fri 10:06:32 AM 40.2158 -112.1992 15° North 357 411 15,300 -1,091 Descending Salt Lake Center
Fri 10:07:20 AM 40.2950 -112.1800 10° North 333 383 14,300 -1,101 Descending Salt Lake Center
Fri 10:08:21 AM 40.3731 -112.1511 16° North 305 351 13,300 -645 Descending Salt Lake Center
Fri 10:09:21 AM 40.4519 -112.1247 14° North 288 331 13,000 -157 Descending Salt Lake Center
Fri 10:10:16 AM 40.5219 -112.0983 16° North 283 326 13,000  Level Salt Lake Center
Fri 10:10:36 AM 40.5378 -112.0897 22° Northeast 283 326 13,000 -545 Level Salt Lake Center
Fri 10:11:22 AM 40.6075 -112.0836 North 285 328 12,400 -581 Descending Salt Lake Center
Fri 10:11:38 AM 40.6175 -112.0789 20° North 286 329 12,400 -655 Level Salt Lake Center
Fri 10:12:17 AM 40.6767 -112.0856 355° North 257 296 11,800 -984 Descending Salt Lake Center
Fri 10:12:39 AM 40.7025 -112.0856 360° North 253 291 11,400 -578 Descending Salt Lake Center
Fri 10:13:40 AM 40.7678 -112.0919 356° North 236 272 11,000 -229 Descending Salt Lake Center
Fri 10:14:24 AM 40.8133 -112.1017 351° North 227 261 11,000 -97 Level Salt Lake Center
Fri 10:14:42 AM 40.8289 -112.1003 North 222 255 10,900 -984 Descending Salt Lake Center
Fri 10:15:25 AM 40.8725 -112.1072 353° North 211 243 10,000 -1,279 Descending Salt Lake Center
Fri 10:15:43 AM 40.8867 -112.1075 359° North 209 241 9,600 -1,377 Descending Salt Lake Center
Fri 10:16:26 AM 40.9297 -112.1133 354° North 208 239 8,600 -1,377 Descending Salt Lake Center
Fri 10:16:44 AM 40.9442 -112.1139 358° North 207 238 8,200 -1,279 Descending Salt Lake Center
Fri 10:17:27 AM 40.9739 -112.0756 44° Northeast 223 257 7,300 -984 Descending Salt Lake Center
Fri 10:17:45 AM 40.9750 -112.0558 86° East 231 266 7,200 -900 Descending Salt Lake Center
Fri 10:18:27 AM 40.9575 -112.0131 118° Southeast 207 238 6,400 -968 Descending Salt Lake Center
Fri 10:18:47 AM 40.9447 -112.0161 190° South 203 234 6,200 -393 Descending Salt Lake Center
Fri 10:19:28 AM 40.9033 -112.0117 175° South 189 217 6,000 -295 Descending Salt Lake Center
Fri 10:19:48 AM 40.8933 -112.0094 170° South 187 215 5,900 -689 Descending Salt Lake Center
Fri 10:20:29 AM 40.8594 -112.0067 176° South 155 178 5,300 -689 Descending Salt Lake Center
Fri 10:20:49 AM 40.8531 -112.0039 162° South 142 163 5,200 -689 Descending Salt Lake Center
Fri 10:21:30 AM 40.8239 -112.0017 177° South 129 148 4,600 -689 Descending Salt Lake Center
Fri 10:21:50 AM 40.8183 -112.0000 167° South 126 145 4,500 -300 Descending Salt Lake Center
Fri 10:23:00 AM 40.7884 -111.9778 159° South  Level Estimated
Fri 10:30:00 AM 40.7884 -111.9778 159° South  Level Estimated

Login

Don't have an account? Register now (free) for customized features, flight alerts, and more!